Weather Roundup
Issued by NWS

Home | Current Version | Previous Version | Graphics & Text | Print | Product List | Glossary Off
Versions: 1 2 3 4 5 6 7 8 9 10 11 12 13 14 15 16 17 18 19 20 21 22 23 24 25 26 27 28 29 30 31 32 33 34 35 36 37 38 39 40 41 42 43 44 45 46 47 48 49 50

000
NZUS93 KARX 011259
HRRWXR

CURRENT HOURLY OBSERVATIONS ACROSS
MUCH OF THE UPPER MISSISSIPPI VALLEY
NATIONAL WEATHER SERVICE LA CROSSE WI
800 AM CDT WED OCT 01 2014


...SOUTHEAST MINNESOTA...


CITY           SKY/WX    TMP DP  RH WIND       PRES   REMARKS
ROCHESTER      LGT RAIN  48  47  96 SE14G21   29.88S FOG
ROCHESTER/MAYO CLOUDY    48  46  95 E9G16     29.88S
WINONA         CLOUDY    48  46  93 SE7       29.92S
AUSTIN         RAIN      48  46  93 SE10G16   29.85S
ALBERT LEA     RAIN      50  50 100 SE13      29.82F
DODGE CENTER   RAIN      48  48 100 SE14      29.86S
PRESTON        CLOUDY    47  46  93 SE10      29.89F FOG
OWATONNA       RAIN      50  48  93 SE15      29.84S
FARIBAULT      RAIN      52  48  87 SE9       29.85R
$$

...ELSEWHERE IN MINNESOTA...


CITY           SKY/WX    TMP DP  RH WIND       PRES   REMARKS
MINNEAPOLIS    LGT RAIN  50  47  89 SE10      29.85R FOG
INTNL FALLS    NOT AVBL
DULUTH         LGT RAIN  47  44  90 SE12      29.86S FOG
RED WING       LGT RAIN  50  48  93 SE9       29.88R
REDWOOD FALLS  CLOUDY    58  54  86 S12       29.77R
MANKATO        CLOUDY    52  46  82 SE14      29.81S
WORTHINGTON    CLOUDY    57  55  94 SE6       29.77S
FAIRMONT       CLOUDY    54  48  82 SE13      29.77F
$$

...SOUTHWEST WISCONSIN...


CITY           SKY/WX    TMP DP  RH WIND       PRES   REMARKS
LA CROSSE      CLOUDY    52  46  80 SE5       29.93S
PRAIRIE DU CHI CLOUDY    52  46  80 E7        29.92S
BOSCOBEL       CLOUDY    53  47  79 SE3       29.95F
LONE ROCK      NOT AVBL
PLATTEVILLE    PTSUNNY   50  48  92 SE12      29.96R
FORT MC COY    CLOUDY    48  45  87 SE5       29.95S
VIROQUA        CLOUDY    48  48 100 E8        29.93F
WIS DELLS      CLOUDY    49  46  88 E6        29.97F
$$

...ELSEWHERE IN WISCONSIN...


CITY           SKY/WX    TMP DP  RH WIND       PRES   REMARKS
MILWAUKEE      PTSUNNY   56  48  74 S7        30.01S
MADISON        CLOUDY    52  47  83 S9        29.99R
GREEN BAY      CLOUDY    51  50  96 E3        30.02S
EAU CLAIRE     RAIN      47  44  90 SE9       29.92F FOG
BLACK RVR FLS  CLOUDY    49  47  95 SE3       29.95S
MEDFORD        CLOUDY    45  44  97 SE14      29.97R
WAUSAU         CLOUDY    47  45  93 SE8       29.98S
WIS RAPIDS     CLOUDY    49  47  93 E6        29.99S
MARSHFIELD     CLOUDY    49  45  86 SE12      29.96F
RICE LAKE      CLOUDY    48  43  84 SE15      29.92S
$$

...NORTHEAST IOWA...


CITY           SKY/WX    TMP DP  RH WIND       PRES   REMARKS
DECORAH        CLOUDY    50  48  93 VRB7G13   29.91R
MASON CITY     LGT RAIN  51  50  96 SE16G22   29.83F FOG
CHARLES CITY   LGT RAIN  50  48  93 SE13      29.88S
OELWEIN        CLOUDY    52  48  87 SE10G16   29.91R
$$

...ELSEWHERE IN IOWA...


CITY           SKY/WX    TMP DP  RH WIND       PRES   REMARKS
DES MOINES     LGT RAIN  60  57  89 SE9G20    29.79R
IOWA CITY      CLOUDY    53  49  86 SE8       29.92R
FORT DODGE     CLOUDY    57  54  88 SE12G17   29.78R
$$

...NORTHERN ILLINOIS...


CITY           SKY/WX    TMP DP  RH WIND       PRES   REMARKS
CHICAGO-OHARE  MOSUNNY   53  47  79 SE10      30.01S
CHICAGO-MIDWAY MOSUNNY   55  48  77 SE8       30.01S
MOLINE         NOT AVBL
ROCKFORD       PTSUNNY   51  46  83 SE9       30.01R
PEORIA         MOSUNNY   56  48  74 E6        29.95S
$$

NOTE: "FAIR" INDICATES FEW OR NO CLOUDS BELOW 12,000 FEET WITH NO
SIGNIFICANT WEATHER AND/OR OBSTRUCTIONS TO VISIBILITY. WIND
SPEEDS ARE IN MILES-PER-HOUR.



USA.gov is the U.S. government's official web portal to all federal, state and local government web resources and services.